Time,TemperatureF,DewpointF,PressureIn,WindDirection,WindDirectionDegrees,WindSpeedMPH,WindSpeedGustMPH,Humidity,HourlyPrecipIn,Conditions,Clouds,dailyrainin,SoftwareType,DateUTC
2013-01-22 00:02:00,19.0,14.0,-100.00,SE,138,9.0,11.0,81,0.00,,,-99.99,,2013-01-22 07:02:00,
2013-01-22 00:12:00,18.0,13.0,-100.00,SE,141,7.0,9.0,80,0.00,,,-99.99,,2013-01-22 07:12:00,
2013-01-22 00:22:00,20.0,14.0,-100.00,SE,137,9.0,10.0,78,0.00,,,-99.99,,2013-01-22 07:22:00,
2013-01-22 00:32:00,20.0,14.0,-100.00,SE,137,9.0,10.0,78,0.00,,,-99.99,,2013-01-22 07:32:00,
2013-01-22 00:42:00,20.0,13.0,-100.00,SE,137,8.0,9.0,76,0.00,,,-99.99,,2013-01-22 07:42:00,
2013-01-22 00:53:00,19.0,13.0,-100.00,SSE,148,6.0,8.0,80,0.00,,,-99.99,,2013-01-22 07:53:00,
2013-01-22 01:02:00,19.0,13.0,-100.00,SSE,148,6.0,8.0,80,0.00,,,-99.99,,2013-01-22 08:02:00,
2013-01-22 01:11:00,19.0,13.0,-100.00,SSE,155,6.0,9.0,79,0.00,,,-99.99,,2013-01-22 08:11:00,
2013-01-22 01:22:00,19.0,13.0,-100.00,ESE,121,11.0,13.0,80,0.00,,,-99.99,,2013-01-22 08:22:00,
2013-01-22 01:42:00,18.0,13.0,-100.00,SE,140,8.0,9.0,79,0.00,,,-99.99,,2013-01-22 08:42:00,
2013-01-22 01:52:00,18.0,13.0,-100.00,SE,133,7.0,8.0,82,0.00,,,-99.99,,2013-01-22 08:52:00,
2013-01-22 02:02:00,18.0,13.0,-100.00,SE,133,7.0,8.0,82,0.00,,,-99.99,,2013-01-22 09:02:00,
2013-01-22 02:11:00,19.0,14.0,-100.00,SE,133,8.0,10.0,78,0.00,,,-99.99,,2013-01-22 09:11:00,
2013-01-22 02:22:00,18.0,13.0,-100.00,SSE,148,7.0,8.0,80,0.00,,,-99.99,,2013-01-22 09:22:00,
2013-01-22 02:32:00,18.0,13.0,-100.00,SSE,148,7.0,8.0,80,0.00,,,-99.99,,2013-01-22 09:32:00,
2013-01-22 02:42:00,17.0,13.0,-100.00,SE,138,8.0,9.0,83,0.00,,,-99.99,,2013-01-22 09:42:00,
2013-01-22 02:52:00,18.0,14.0,-100.00,SE,145,9.0,11.0,83,0.00,,,-99.99,,2013-01-22 09:52:00,
2013-01-22 03:02:00,18.0,14.0,-100.00,SE,145,9.0,11.0,83,0.00,,,-99.99,,2013-01-22 10:02:00,
2013-01-22 03:12:00,17.0,13.0,-100.00,SE,145,7.0,9.0,83,0.00,,,-99.99,,2013-01-22 10:12:00,
2013-01-22 03:22:00,16.0,13.0,-100.00,SE,136,8.0,9.0,88,0.00,,,-99.99,,2013-01-22 10:22:00,
2013-01-22 03:32:00,16.0,13.0,-100.00,SE,136,8.0,9.0,88,0.00,,,-99.99,,2013-01-22 10:32:00,
2013-01-22 03:42:00,15.0,13.0,-100.00,SE,133,8.0,9.0,90,0.00,,,-99.99,,2013-01-22 10:42:00,
2013-01-22 03:52:00,14.0,12.0,-100.00,SE,136,8.0,9.0,92,0.00,,,-99.99,,2013-01-22 10:52:00,
2013-01-22 04:02:00,14.0,12.0,-100.00,SE,136,8.0,9.0,92,0.00,,,-99.99,,2013-01-22 11:02:00,
2013-01-22 04:12:00,14.0,12.0,-100.00,SE,141,8.0,9.0,90,0.00,,,-99.99,,2013-01-22 11:12:00,
2013-01-22 04:22:00,13.0,11.0,-100.00,SE,130,8.0,10.0,91,0.00,,,-99.99,,2013-01-22 11:22:00,
2013-01-22 04:32:00,13.0,11.0,-100.00,SE,130,8.0,10.0,91,0.00,,,-99.99,,2013-01-22 11:32:00,
2013-01-22 04:42:00,13.0,11.0,-100.00,SE,130,10.0,12.0,92,0.00,,,-99.99,,2013-01-22 11:42:00,
2013-01-22 04:53:00,12.0,11.0,-100.00,SE,130,9.0,11.0,96,0.00,,,-99.99,,2013-01-22 11:53:00,
2013-01-22 05:03:00,11.0,11.0,-100.00,SE,131,9.0,10.0,96,0.00,,,-99.99,,2013-01-22 12:03:00,
2013-01-22 05:22:00,12.0,11.0,-100.00,SE,138,9.0,11.0,97,0.00,,,-99.99,,2013-01-22 12:22:00,
2013-01-22 05:43:00,11.0,11.0,-100.00,SE,134,8.0,11.0,98,0.00,,,-99.99,,2013-01-22 12:43:00,
2013-01-22 05:53:00,11.0,10.0,-100.00,SE,133,9.0,10.0,97,0.00,,,-99.99,,2013-01-22 12:53:00,
2013-01-22 06:03:00,11.0,10.0,-100.00,SE,133,9.0,10.0,97,0.00,,,-99.99,,2013-01-22 13:03:00,
2013-01-22 06:13:00,11.0,11.0,-100.00,SE,128,11.0,12.0,97,0.00,,,-99.99,,2013-01-22 13:13:00,
2013-01-22 06:23:00,12.0,11.0,-100.00,SE,128,10.0,12.0,96,0.00,,,-99.99,,2013-01-22 13:23:00,
2013-01-22 06:33:00,12.0,11.0,-100.00,SE,128,10.0,12.0,96,0.00,,,-99.99,,2013-01-22 13:33:00,
2013-01-22 06:42:00,11.0,10.0,-100.00,SE,136,8.0,9.0,97,0.00,,,-99.99,,2013-01-22 13:42:00,
2013-01-22 06:53:00,11.0,11.0,-100.00,SE,128,10.0,11.0,96,0.00,,,-99.99,,2013-01-22 13:53:00,
2013-01-22 07:02:00,11.0,11.0,-100.00,SE,128,10.0,11.0,96,0.00,,,-99.99,,2013-01-22 14:02:00,
2013-01-22 07:12:00,11.0,11.0,-100.00,SE,128,9.0,11.0,97,0.00,,,-99.99,,2013-01-22 14:12:00,
2013-01-22 07:23:00,12.0,11.0,-100.00,SE,130,9.0,10.0,97,0.00,,,-99.99,,2013-01-22 14:23:00,
2013-01-22 07:43:00,12.0,11.0,-100.00,SE,134,10.0,11.0,96,0.00,,,-99.99,,2013-01-22 14:43:00,
2013-01-22 07:53:00,11.0,10.0,-100.00,SE,131,9.0,9.0,96,0.00,,,-99.99,,2013-01-22 14:53:00,
2013-01-22 08:03:00,11.0,10.0,-100.00,SE,131,9.0,9.0,96,0.00,,,-99.99,,2013-01-22 15:03:00,
2013-01-22 08:23:00,11.0,10.0,-100.00,SE,134,9.0,10.0,96,0.00,,,-99.99,,2013-01-22 15:23:00,
2013-01-22 08:33:00,11.0,10.0,-100.00,SE,134,9.0,10.0,96,0.00,,,-99.99,,2013-01-22 15:33:00,
2013-01-22 08:43:00,11.0,10.0,-100.00,SE,134,9.0,11.0,97,0.00,,,-99.99,,2013-01-22 15:43:00,
2013-01-22 08:53:00,11.0,10.0,-100.00,SE,134,9.0,11.0,97,0.00,,,-99.99,,2013-01-22 15:53:00,
2013-01-22 09:13:00,11.0,10.0,-100.00,SE,133,9.0,11.0,96,0.00,,,-99.99,,2013-01-22 16:13:00,
2013-01-22 09:23:00,11.0,10.0,-100.00,SE,133,9.0,11.0,96,0.00,,,-99.99,,2013-01-22 16:23:00,
2013-01-22 09:43:00,11.0,11.0,-100.00,SE,134,8.0,9.0,97,0.00,,,-99.99,,2013-01-22 16:43:00,
2013-01-22 09:54:00,13.0,13.0,-100.00,SE,134,8.0,9.0,96,0.00,,,-99.99,,2013-01-22 16:54:00,
2013-01-22 10:03:00,13.0,13.0,-100.00,SE,134,8.0,9.0,96,0.00,,,-99.99,,2013-01-22 17:03:00,
2013-01-22 10:12:00,14.0,12.0,-100.00,SE,136,9.0,11.0,94,0.00,,,-99.99,,2013-01-22 17:12:00,
2013-01-22 10:23:00,14.0,13.0,-100.00,SE,133,9.0,10.0,94,0.00,,,-99.99,,2013-01-22 17:23:00,
2013-01-22 10:33:00,14.0,13.0,-100.00,SE,133,9.0,10.0,94,0.00,,,-99.99,,2013-01-22 17:33:00,
2013-01-22 10:43:00,15.0,13.0,-100.00,SE,131,9.0,10.0,92,0.00,,,-99.99,,2013-01-22 17:43:00,
2013-01-22 10:53:00,18.0,14.0,-100.00,SE,140,9.0,13.0,82,0.00,,,-99.99,,2013-01-22 17:53:00,
2013-01-22 11:03:00,18.0,14.0,-100.00,SE,140,9.0,13.0,82,0.00,,,-99.99,,2013-01-22 18:03:00,
2013-01-22 11:23:00,19.0,14.0,-100.00,SE,130,10.0,11.0,80,0.00,,,-99.99,,2013-01-22 18:23:00,
2013-01-22 11:33:00,19.0,14.0,-100.00,SE,130,10.0,11.0,80,0.00,,,-99.99,,2013-01-22 18:33:00,
2013-01-22 11:43:00,20.0,15.0,-100.00,SE,137,10.0,11.0,78,0.00,,,-99.99,,2013-01-22 18:43:00,
2013-01-22 11:53:00,21.0,14.0,-100.00,SE,136,9.0,13.0,75,0.00,,,-99.99,,2013-01-22 18:53:00,
2013-01-22 12:03:00,21.0,14.0,-100.00,SE,136,9.0,13.0,75,0.00,,,-99.99,,2013-01-22 19:03:00,
2013-01-22 12:13:00,21.0,14.0,-100.00,SE,134,10.0,12.0,75,0.00,,,-99.99,,2013-01-22 19:13:00,
2013-01-22 12:23:00,22.0,15.0,-100.00,SE,136,11.0,13.0,71,0.00,,,-99.99,,2013-01-22 19:23:00,
2013-01-22 12:33:00,22.0,15.0,-100.00,SE,136,11.0,13.0,71,0.00,,,-99.99,,2013-01-22 19:33:00,
2013-01-22 12:43:00,23.0,15.0,-100.00,SE,134,11.0,13.0,73,0.00,,,-99.99,,2013-01-22 19:43:00,
2013-01-22 12:54:00,22.0,15.0,-100.00,SE,137,11.0,13.0,74,0.00,,,-99.99,,2013-01-22 19:54:00,
2013-01-22 13:03:00,22.0,15.0,-100.00,SE,137,11.0,13.0,74,0.00,,,-99.99,,2013-01-22 20:03:00,
2013-01-22 13:12:00,22.0,16.0,-100.00,SE,136,10.0,13.0,76,0.00,,,-99.99,,2013-01-22 20:12:00,
2013-01-22 13:23:00,22.0,16.0,-100.00,SE,140,11.0,15.0,76,0.00,,,-99.99,,2013-01-22 20:23:00,
2013-01-22 13:33:00,22.0,16.0,-100.00,SE,140,11.0,15.0,76,0.00,,,-99.99,,2013-01-22 20:33:00,
2013-01-22 13:42:00,23.0,16.0,-100.00,SE,134,10.0,12.0,74,0.00,,,-99.99,,2013-01-22 20:42:00,
2013-01-22 13:53:00,24.0,17.0,-100.00,SE,136,11.0,15.0,74,0.00,,,-99.99,,2013-01-22 20:53:00,
2013-01-22 14:03:00,24.0,17.0,-100.00,SE,136,11.0,15.0,74,0.00,,,-99.99,,2013-01-22 21:03:00,
2013-01-22 14:13:00,24.0,16.0,-100.00,SE,131,11.0,14.0,70,0.00,,,-99.99,,2013-01-22 21:13:00,
2013-01-22 14:22:00,24.0,16.0,-100.00,SE,131,11.0,14.0,70,0.00,,,-99.99,,2013-01-22 21:22:00,
2013-01-22 14:33:00,24.0,16.0,-100.00,SE,131,11.0,14.0,70,0.00,,,-99.99,,2013-01-22 21:33:00,
2013-01-22 14:43:00,25.0,15.0,-100.00,SE,130,11.0,13.0,66,0.00,,,-99.99,,2013-01-22 21:43:00,
2013-01-22 14:53:00,25.0,16.0,-100.00,SE,131,11.0,13.0,68,0.00,,,-99.99,,2013-01-22 21:53:00,
2013-01-22 15:02:00,25.0,16.0,-100.00,SE,131,11.0,13.0,68,0.00,,,-99.99,,2013-01-22 22:02:00,
2013-01-22 15:12:00,25.0,16.0,-100.00,SE,127,11.0,13.0,68,0.00,,,-99.99,,2013-01-22 22:12:00,
2013-01-22 15:22:00,25.0,16.0,-100.00,SE,136,11.0,13.0,70,0.00,,,-99.99,,2013-01-22 22:22:00,
2013-01-22 15:43:00,25.0,17.0,-100.00,SE,137,11.0,13.0,70,0.00,,,-99.99,,2013-01-22 22:43:00,
2013-01-22 15:53:00,24.0,16.0,-100.00,SE,137,11.0,14.0,71,0.00,,,-99.99,,2013-01-22 22:53:00,
2013-01-22 16:02:00,24.0,16.0,-100.00,SE,137,11.0,14.0,71,0.00,,,-99.99,,2013-01-22 23:02:00,
2013-01-22 16:12:00,24.0,16.0,-100.00,SE,140,11.0,13.0,71,0.00,,,-99.99,,2013-01-22 23:12:00,
2013-01-22 16:23:00,23.0,16.0,-100.00,SE,137,10.0,13.0,73,0.00,,,-99.99,,2013-01-22 23:23:00,
2013-01-22 16:33:00,23.0,16.0,-100.00,SE,137,10.0,13.0,73,0.00,,,-99.99,,2013-01-22 23:33:00,
2013-01-22 16:42:00,22.0,15.0,-100.00,SE,137,12.0,15.0,73,0.00,,,-99.99,,2013-01-22 23:42:00,
2013-01-22 16:53:00,22.0,15.0,-100.00,SE,134,10.0,14.0,75,0.00,,,-99.99,,2013-01-22 23:53:00,
2013-01-22 17:02:00,22.0,15.0,-100.00,SE,134,10.0,14.0,75,0.00,,,-99.99,,2013-01-23 00:02:00,
2013-01-22 17:12:00,21.0,15.0,-100.00,SE,138,10.0,13.0,75,0.00,,,-99.99,,2013-01-23 00:12:00,
2013-01-22 17:22:00,20.0,15.0,-100.00,SE,138,9.0,11.0,78,0.00,,,-99.99,,2013-01-23 00:22:00,
2013-01-22 17:33:00,20.0,15.0,-100.00,SE,138,9.0,11.0,78,0.00,,,-99.99,,2013-01-23 00:33:00,
2013-01-22 17:42:00,19.0,14.0,-100.00,SE,137,9.0,11.0,80,0.00,,,-99.99,,2013-01-23 00:42:00,
2013-01-22 17:52:00,18.0,14.0,-100.00,SE,136,9.0,11.0,82,0.00,,,-99.99,,2013-01-23 00:52:00,
2013-01-22 18:02:00,18.0,14.0,-100.00,SE,136,9.0,11.0,82,0.00,,,-99.99,,2013-01-23 01:02:00,
2013-01-22 18:13:00,18.0,14.0,-100.00,SE,131,9.0,11.0,84,0.00,,,-99.99,,2013-01-23 01:13:00,
2013-01-22 18:22:00,17.0,13.0,-100.00,SE,133,9.0,10.0,85,0.00,,,-99.99,,2013-01-23 01:22:00,
2013-01-22 18:33:00,17.0,13.0,-100.00,SE,133,9.0,10.0,85,0.00,,,-99.99,,2013-01-23 01:33:00,
2013-01-22 18:43:00,17.0,13.0,-100.00,SE,136,9.0,11.0,84,0.00,,,-99.99,,2013-01-23 01:43:00,
2013-01-22 18:53:00,17.0,13.0,-100.00,SE,134,10.0,12.0,83,0.00,,,-99.99,,2013-01-23 01:53:00,
2013-01-22 19:03:00,17.0,13.0,-100.00,SE,134,10.0,12.0,83,0.00,,,-99.99,,2013-01-23 02:03:00,
2013-01-22 19:12:00,17.0,12.0,-100.00,SE,133,9.0,10.0,80,0.00,,,-99.99,,2013-01-23 02:12:00,
2013-01-22 19:22:00,18.0,12.0,-100.00,SE,134,9.0,11.0,76,0.00,,,-99.99,,2013-01-23 02:22:00,
2013-01-22 19:33:00,18.0,12.0,-100.00,SE,134,9.0,11.0,76,0.00,,,-99.99,,2013-01-23 02:33:00,
2013-01-22 19:42:00,18.0,11.0,-100.00,SE,134,8.0,9.0,73,0.00,,,-99.99,,2013-01-23 02:42:00,
2013-01-22 19:53:00,18.0,11.0,-100.00,SE,141,8.0,9.0,75,0.00,,,-99.99,,2013-01-23 02:53:00,
2013-01-22 20:03:00,18.0,11.0,-100.00,SE,141,8.0,9.0,75,0.00,,,-99.99,,2013-01-23 03:03:00,
2013-01-22 20:12:00,18.0,11.0,-100.00,SE,140,8.0,10.0,73,0.00,,,-99.99,,2013-01-23 03:12:00,
2013-01-22 20:23:00,17.0,11.0,-100.00,SE,137,8.0,9.0,77,0.00,,,-99.99,,2013-01-23 03:23:00,
2013-01-22 20:32:00,17.0,11.0,-100.00,SE,137,8.0,9.0,77,0.00,,,-99.99,,2013-01-23 03:32:00,
2013-01-22 20:42:00,19.0,11.0,-100.00,SE,141,9.0,14.0,70,0.00,,,-99.99,,2013-01-23 03:42:00,
2013-01-22 20:53:00,19.0,11.0,-100.00,SE,143,8.0,9.0,70,0.00,,,-99.99,,2013-01-23 03:53:00,
2013-01-22 21:03:00,19.0,11.0,-100.00,SE,143,8.0,9.0,70,0.00,,,-99.99,,2013-01-23 04:03:00,
2013-01-22 21:12:00,19.0,11.0,-100.00,SE,143,8.0,9.0,73,0.00,,,-99.99,,2013-01-23 04:12:00,
2013-01-22 21:22:00,19.0,12.0,-100.00,SE,141,9.0,12.0,75,0.00,,,-99.99,,2013-01-23 04:22:00,
2013-01-22 21:32:00,19.0,12.0,-100.00,SE,141,9.0,12.0,75,0.00,,,-99.99,,2013-01-23 04:32:00,
2013-01-22 21:43:00,19.0,12.0,-100.00,SE,141,9.0,11.0,76,0.00,,,-99.99,,2013-01-23 04:43:00,
2013-01-22 21:53:00,18.0,12.0,-100.00,SE,141,8.0,10.0,75,0.00,,,-99.99,,2013-01-23 04:53:00,
2013-01-22 22:03:00,18.0,12.0,-100.00,SE,141,8.0,10.0,75,0.00,,,-99.99,,2013-01-23 05:03:00,
2013-01-22 22:12:00,19.0,12.0,-100.00,SE,140,9.0,11.0,74,0.00,,,-99.99,,2013-01-23 05:12:00,
2013-01-22 22:22:00,19.0,12.0,-100.00,SE,137,8.0,10.0,73,0.00,,,-99.99,,2013-01-23 05:22:00,
2013-01-22 22:33:00,19.0,12.0,-100.00,SE,137,8.0,10.0,73,0.00,,,-99.99,,2013-01-23 05:33:00,
2013-01-22 22:43:00,19.0,13.0,-100.00,SE,138,8.0,10.0,75,0.00,,,-99.99,,2013-01-23 05:43:00,
2013-01-22 22:53:00,19.0,13.0,-100.00,SE,137,8.0,9.0,77,0.00,,,-99.99,,2013-01-23 05:53:00,
2013-01-22 23:02:00,19.0,13.0,-100.00,SE,137,8.0,9.0,77,0.00,,,-99.99,,2013-01-23 06:02:00,
2013-01-22 23:12:00,19.0,13.0,-100.00,SE,141,8.0,10.0,78,0.00,,,-99.99,,2013-01-23 06:12:00,
2013-01-22 23:22:00,18.0,13.0,-100.00,SE,136,8.0,9.0,82,0.00,,,-99.99,,2013-01-23 06:22:00,
2013-01-22 23:32:00,18.0,13.0,-100.00,SE,136,8.0,9.0,82,0.00,,,-99.99,,2013-01-23 06:32:00,
2013-01-22 23:42:00,18.0,13.0,-100.00,SE,140,8.0,9.0,81,0.00,,,-99.99,,2013-01-23 06:42:00,
2013-01-22 23:53:00,18.0,13.0,-100.00,SE,134,8.0,9.0,81,0.00,,,-99.99,,2013-01-23 06:53:00,